�������l�o���
Date,Time,MP-1(��Sv/h),MP-2(��Sv/h),MP-3(��Sv/h),MP-4(��Sv/h),MP-5(��Sv/h),MP-6(��Sv/h),MP-7(��Sv/h),MP-8(��Sv/h),����,����(m/s),���J
2018/03/17,00:00,0.850,1.435,0.893,1.680,1.135,0.479,0.847,0.815,�k�k��,6.9,��
2018/03/17,00:10,0.849,1.438,0.891,1.677,1.134,0.479,0.848,0.817,�k�k��,6.1,��
2018/03/17,00:20,0.851,1.437,0.892,1.680,1.134,0.480,0.848,0.817,�k�k��,7.4,��
2018/03/17,00:30,0.850,1.437,0.889,1.678,1.134,0.480,0.848,0.817,�k�k��,8.2,��
2018/03/17,00:40,0.850,1.438,0.894,1.681,1.131,0.480,0.850,0.817,�k�k��,8.1,��
2018/03/17,00:50,0.848,1.439,0.890,1.678,1.135,0.479,0.848,0.816,�k�k��,5.8,��
2018/03/17,01:00,0.850,1.437,0.890,1.681,1.134,0.480,0.848,0.814,�k�k��,6.5,��
2018/03/17,01:10,0.848,1.441,0.890,1.682,1.133,0.479,0.849,0.815,�k�k��,6.6,��
2018/03/17,01:20,0.850,1.438,0.889,1.680,1.132,0.479,0.848,0.817,�k�k��,5.5,��
2018/03/17,01:30,0.851,1.438,0.891,1.680,1.132,0.478,0.848,0.817,�k�k��,6.7,��
2018/03/17,01:40,0.852,1.438,0.889,1.682,1.134,0.479,0.849,0.816,�k��,8.1,��
2018/03/17,01:50,0.852,1.438,0.892,1.681,1.133,0.480,0.849,0.815,�k��,8.2,��
2018/03/17,02:00,0.851,1.438,0.891,1.682,1.133,0.479,0.847,0.818,�k�k��,7.9,��
2018/03/17,02:10,0.850,1.436,0.890,1.693,1.132,0.479,0.849,0.816,�k�k��,6.8,��
2018/03/17,02:20,0.849,1.437,0.890,1.679,1.135,0.479,0.847,0.817,�k�k��,7.1,��
2018/03/17,02:30,0.850,1.435,0.890,1.681,1.136,0.479,0.850,0.815,�k�k��,8.6,��
2018/03/17,02:40,0.850,1.438,0.890,1.681,1.133,0.479,0.849,0.817,�k�k��,8.3,��
2018/03/17,02:50,0.848,1.436,0.891,1.680,1.133,0.478,0.847,0.818,�k�k��,7.8,��
2018/03/17,03:00,0.850,1.436,0.891,1.679,1.130,0.478,0.848,0.816,�k�k��,7.8,��
2018/03/17,03:10,0.848,1.437,0.889,1.678,1.131,0.478,0.849,0.817,�k�k��,8.7,��
2018/03/17,03:20,0.849,1.437,0.890,1.677,1.134,0.477,0.851,0.818,�k�k��,7.9,��
2018/03/17,03:30,0.850,1.435,0.889,1.678,1.134,0.478,0.848,0.815,�k�k��,7.6,��
2018/03/17,03:40,0.850,1.437,0.891,1.681,1.133,0.479,0.848,0.816,�k�k��,7.1,��
2018/03/17,03:50,0.851,1.437,0.890,1.680,1.132,0.478,0.848,0.815,�k�k��,7.5,��
2018/03/17,04:00,0.849,1.436,0.892,1.680,1.135,0.479,0.847,0.815,�k�k��,8.2,��
2018/03/17,04:10,0.851,1.437,0.892,1.680,1.132,0.479,0.846,0.816,�k�k��,7.4,��
2018/03/17,04:20,0.848,1.435,0.891,1.681,1.131,0.478,0.849,0.816,�k�k��,7.0,��
2018/03/17,04:30,0.849,1.437,0.891,1.680,1.132,0.478,0.847,0.817,�k�k��,6.6,��
2018/03/17,04:40,0.849,1.438,0.890,1.680,1.133,0.479,0.846,0.815,�k�k��,6.8,��
2018/03/17,04:50,0.849,1.434,0.890,1.680,1.134,0.479,0.847,0.815,�k�k��,7.1,��
2018/03/17,05:00,0.848,1.438,0.892,1.680,1.131,0.479,0.846,0.816,�k�k��,7.4,��
2018/03/17,05:10,0.848,1.438,0.891,1.678,1.131,0.478,0.847,0.816,�k,7.5,��
2018/03/17,05:20,0.849,1.438,0.889,1.680,1.132,0.478,0.847,0.815,�k,8.3,��
2018/03/17,05:30,0.849,1.437,0.890,1.679,1.134,0.478,0.849,0.817,�k,7.9,��
2018/03/17,05:40,0.846,1.436,0.891,1.679,1.133,0.478,0.848,0.816,�k�k��,7.3,��
2018/03/17,05:50,0.848,1.436,0.888,1.682,1.132,0.478,0.845,0.816,�k�k��,6.0,��
2018/03/17,06:00,0.849,1.434,0.891,1.680,1.130,0.478,0.847,0.817,�k�k��,6.1,��
2018/03/17,06:10,0.848,1.437,0.889,1.679,1.130,0.476,0.845,0.816,�k�k��,7.9,��
2018/03/17,06:20,0.849,1.436,0.889,1.680,1.131,0.479,0.848,0.816,�k�k��,8.0,��
2018/03/17,06:30,0.849,1.437,0.889,1.679,1.133,0.478,0.849,0.816,�k�k��,7.4,��
2018/03/17,06:40,0.847,1.436,0.890,1.679,1.131,0.476,0.847,0.816,�k�k��,7.0,��
2018/03/17,06:50,0.848,1.437,0.891,1.679,1.133,0.479,0.850,0.817,�k�k��,7.6,��
2018/03/17,07:00,0.848,1.438,0.891,1.680,1.132,0.477,0.848,0.817,�k�k��,8.7,��
2018/03/17,07:10,0.848,1.438,0.892,1.680,1.133,0.478,0.848,0.817,�k�k��,9.3,��
2018/03/17,07:20,0.850,1.438,0.890,1.680,1.134,0.478,0.848,0.817,�k�k��,8.5,��
2018/03/17,07:30,0.852,1.435,0.891,1.681,1.130,0.479,0.849,0.817,�k�k��,9.2,��
2018/03/17,07:40,0.849,1.435,0.890,1.683,1.131,0.480,0.849,0.816,�k�k��,8.1,��
2018/03/17,07:50,0.851,1.438,0.890,1.679,1.133,0.477,0.850,0.816,�k�k��,7.2,��
2018/03/17,08:00,0.851,1.438,0.893,1.682,1.134,0.479,0.849,0.816,�k,6.6,��
2018/03/17,08:10,0.850,1.440,0.891,1.680,1.135,0.479,0.849,0.817,�k,6.6,��
2018/03/17,08:20,0.851,1.437,0.891,1.682,1.133,0.478,0.851,0.817,�k�k��,7.9,��
2018/03/17,08:30,0.851,1.439,0.892,1.683,1.134,0.479,0.850,0.818,�k�k��,6.6,��
2018/03/17,08:40,0.853,1.441,0.891,1.682,1.136,0.479,0.850,0.818,�k�k��,9.6,��
2018/03/17,08:50,0.853,1.439,0.894,1.682,1.132,0.479,0.850,0.818,�k�k��,7.1,��
2018/03/17,09:00,0.855,1.438,0.894,1.679,1.132,0.478,0.847,0.818,�k�k��,6.9,��
2018/03/17,09:10,0.853,1.436,0.894,1.682,1.136,0.480,0.847,0.818,�k�k��,6.4,��
2018/03/17,09:20,0.854,1.439,0.894,1.684,1.137,0.479,0.847,0.817,�k�k��,6.9,��
2018/03/17,09:30,0.854,1.438,0.891,1.683,1.136,0.479,0.849,0.819,�k�k��,6.9,��
2018/03/17,09:40,0.852,1.438,0.892,1.686,1.136,0.479,0.850,0.817,�k�k��,4.6,��
2018/03/17,09:50,0.856,1.440,0.894,1.688,1.137,0.480,0.850,0.819,�k,3.6,��
2018/03/17,10:00,0.854,1.439,0.892,1.683,1.139,0.481,0.848,0.819,�k�k��,2.9,��
2018/03/17,10:10,0.853,1.441,0.893,1.685,1.139,0.480,0.848,0.818,�k,4.6,��
2018/03/17,10:20,0.853,1.441,0.893,1.686,1.138,0.481,0.848,0.817,�k�k��,8.4,��
2018/03/17,10:30,0.853,1.439,0.896,1.684,1.139,0.480,0.847,0.817,�k�k��,7.7,��
2018/03/17,10:40,0.854,1.438,0.894,1.685,1.139,0.481,0.848,0.817,�k�k��,6.8,��
2018/03/17,10:50,0.854,1.437,0.894,1.686,1.137,0.480,0.847,0.815,�k�k��,7.8,��
2018/03/17,11:00,0.853,1.438,0.892,1.685,1.140,0.480,0.847,0.816,�k�k��,8.8,��
2018/03/17,11:10,0.855,1.442,0.897,1.685,1.139,0.479,0.847,0.819,�k�k��,8.6,��
2018/03/17,11:20,0.857,1.440,0.894,1.687,1.137,0.482,0.846,0.816,�k�k��,8.7,��
2018/03/17,11:30,0.856,1.442,0.894,1.687,1.140,0.480,0.848,0.817,�k��,8.6,��
2018/03/17,11:40,0.858,1.441,0.894,1.684,1.141,0.481,0.847,0.815,�k�k��,8.4,��
2018/03/17,11:50,0.854,1.443,0.896,1.687,1.143,0.482,0.848,0.816,�k��,8.1,��
2018/03/17,12:00,0.859,1.445,0.893,1.687,1.142,0.481,0.849,0.817,�k��,8.2,��
2018/03/17,12:10,0.857,1.444,0.895,1.687,1.140,0.481,0.849,0.817,�k��,8.4,��
2018/03/17,12:20,0.858,1.445,0.896,1.689,1.142,0.481,0.848,0.817,�k��,8.4,��
2018/03/17,12:30,0.858,1.446,0.894,1.690,1.144,0.480,0.849,0.817,�k��,7.0,��
2018/03/17,12:40,0.860,1.444,0.897,1.688,1.142,0.481,0.849,0.818,�k��,6.4,��
2018/03/17,12:50,0.860,1.445,0.895,1.687,1.143,0.480,0.850,0.817,�k��,5.9,��
2018/03/17,13:00,0.858,1.444,0.898,1.687,1.143,0.481,0.851,0.818,�k�k��,5.9,��
2018/03/17,13:10,0.860,1.446,0.895,1.690,1.144,0.481,0.848,0.819,�k�k��,6.8,��
2018/03/17,13:20,0.857,1.444,0.897,1.690,1.142,0.482,0.846,0.819,�k�k��,5.9,��
2018/03/17,13:30,0.858,1.444,0.897,1.690,1.144,0.482,0.848,0.819,�k��,4.9,��
2018/03/17,13:40,0.859,1.445,0.898,1.688,1.144,0.482,0.848,0.819,�k��,5.8,��
2018/03/17,13:50,0.858,1.446,0.899,1.691,1.144,0.482,0.849,0.816,�k��,5.4,��
2018/03/17,14:00,0.859,1.446,0.897,1.692,1.144,0.483,0.849,0.819,�k��,4.9,��
2018/03/17,14:10,0.859,1.442,0.900,1.688,1.142,0.481,0.849,0.819,�k��,5.3,��
2018/03/17,14:20,0.860,1.444,0.897,1.690,1.144,0.482,0.847,0.816,�k��,4.7,��
2018/03/17,14:30,0.860,1.444,0.897,1.692,1.143,0.482,0.848,0.815,�k��,4.7,��
2018/03/17,14:40,0.861,1.447,0.900,1.692,1.147,0.481,0.848,0.815,�k��,4.9,��
2018/03/17,14:50,0.860,1.448,0.897,1.690,1.143,0.480,0.850,0.817,�k��,5.3,��
2018/03/17,15:00,0.861,1.449,0.897,1.690,1.142,0.481,0.848,0.817,���k��,4.8,��
2018/03/17,15:10,0.859,1.448,0.896,1.687,1.146,0.482,0.849,0.816,�k��,3.9,��
2018/03/17,15:20,0.859,1.449,0.900,1.688,1.144,0.481,0.849,0.817,���k��,3.5,��
2018/03/17,15:30,0.861,1.448,0.898,1.690,1.146,0.482,0.848,0.816,�k��,3.0,��
2018/03/17,15:40,0.860,1.448,0.898,1.690,1.145,0.480,0.849,0.818,�k��,3.6,��
2018/03/17,15:50,0.860,1.448,0.899,1.690,1.145,0.483,0.849,0.819,�k�k��,3.6,��
2018/03/17,16:00,0.859,1.451,0.900,1.688,1.146,0.483,0.847,0.819,�k��,2.6,��
2018/03/17,16:10,0.859,1.450,0.899,1.688,1.145,0.482,0.849,0.820,�k��,2.3,��
2018/03/17,16:20,0.860,1.447,0.898,1.689,1.142,0.482,0.848,0.820,�k��,2.5,��
2018/03/17,16:30,0.860,1.452,0.900,1.688,1.143,0.482,0.847,0.819,�k��,2.3,��
2018/03/17,16:40,0.861,1.451,0.898,1.688,1.144,0.483,0.848,0.819,�k��,2.0,��
2018/03/17,16:50,0.859,1.451,0.898,1.691,1.142,0.480,0.850,0.819,���k��,1.2,��
2018/03/17,17:00,0.859,1.451,0.900,1.689,1.143,0.481,0.850,0.819,�k�k��,1.7,��
2018/03/17,17:10,0.861,1.451,0.900,1.688,1.144,0.480,0.852,0.820,�k�k��,2.0,��
2018/03/17,17:20,0.858,1.449,0.898,1.689,1.146,0.483,0.852,0.819,�k��,1.2,��
2018/03/17,17:30,0.859,1.451,0.897,1.686,1.144,0.483,0.853,0.819,���k��,1.2,��
2018/03/17,17:40,0.860,1.451,0.898,1.688,1.144,0.483,0.850,0.818,���k��,2.0,��
2018/03/17,17:50,0.858,1.449,0.899,1.688,1.144,0.483,0.850,0.818,�k�k��,1.1,��
2018/03/17,18:00,0.858,1.446,0.899,1.688,1.145,0.481,0.850,0.819,�k�k��,1.2,��
2018/03/17,18:10,0.859,1.448,0.896,1.687,1.146,0.483,0.849,0.818,-,CALM,��
2018/03/17,18:20,0.859,1.445,0.897,1.689,1.143,0.482,0.850,0.816,��,0.6,��
2018/03/17,18:30,0.857,1.450,0.897,1.687,1.146,0.481,0.851,0.818,���쐼,0.8,��
2018/03/17,18:40,0.856,1.451,0.898,1.687,1.141,0.481,0.850,0.817,���쐼,1.4,��
2018/03/17,18:50,0.856,1.449,0.895,1.687,1.146,0.480,0.849,0.816,���쐼,1.7,��
2018/03/17,19:00,0.858,1.450,0.897,1.689,1.146,0.482,0.849,0.818,���쐼,1.5,��
2018/03/17,19:10,0.857,1.450,0.895,1.689,1.144,0.481,0.849,0.817,�쐼,2.3,��
2018/03/17,19:20,0.856,1.447,0.897,1.690,1.146,0.482,0.851,0.817,�쐼,2.0,��
2018/03/17,19:30,0.858,1.447,0.894,1.687,1.144,0.481,0.851,0.818,�쐼,2.6,��
2018/03/17,19:40,0.858,1.447,0.897,1.686,1.145,0.481,0.849,0.817,�쐼,2.8,��
2018/03/17,19:50,0.856,1.450,0.895,1.687,1.144,0.482,0.849,0.816,�쐼,2.5,��
2018/03/17,20:00,0.858,1.449,0.896,1.686,1.145,0.481,0.849,0.820,�쐼,2.3,��
2018/03/17,20:10,0.857,1.449,0.896,1.688,1.145,0.481,0.849,0.818,��,1.4,��
2018/03/17,20:20,0.858,1.448,0.895,1.688,1.142,0.480,0.848,0.817,���쐼,1.5,��
2018/03/17,20:30,0.859,1.449,0.896,1.689,1.143,0.482,0.850,0.819,-,CALM,��
2018/03/17,20:40,0.857,1.447,0.897,1.686,1.143,0.479,0.849,0.817,��쐼,2.9,��
2018/03/17,20:50,0.857,1.445,0.897,1.687,1.143,0.481,0.848,0.816,�쐼,2.9,��
2018/03/17,21:00,0.856,1.449,0.896,1.687,1.146,0.480,0.848,0.818,�쐼,2.8,��
2018/03/17,21:10,0.859,1.446,0.896,1.688,1.145,0.481,0.846,0.818,�쐼,2.8,��
2018/03/17,21:20,0.857,1.447,0.896,1.688,1.144,0.480,0.850,0.818,��쐼,3.1,��
2018/03/17,21:30,0.857,1.447,0.896,1.686,1.143,0.482,0.848,0.818,��쐼,3.2,��
2018/03/17,21:40,0.857,1.447,0.896,1.687,1.144,0.481,0.848,0.816,��쐼,3.3,��
2018/03/17,21:50,0.855,1.446,0.895,1.686,1.146,0.481,0.847,0.817,��쐼,2.6,��
2018/03/17,22:00,0.856,1.445,0.897,1.686,1.144,0.481,0.848,0.818,��쐼,2.6,��
2018/03/17,22:10,0.856,1.446,0.895,1.686,1.139,0.482,0.848,0.818,��쐼,2.9,��
2018/03/17,22:20,0.857,1.446,0.897,1.688,1.143,0.481,0.848,0.816,��쐼,3.7,��
2018/03/17,22:30,0.856,1.447,0.897,1.686,1.143,0.480,0.848,0.817,��쐼,3.8,��
2018/03/17,22:40,0.856,1.446,0.896,1.688,1.143,0.479,0.848,0.817,��쐼,3.9,��
2018/03/17,22:50,0.858,1.449,0.894,1.685,1.144,0.481,0.848,0.817,��쐼,4.0,��
2018/03/17,23:00,0.856,1.446,0.897,1.685,1.145,0.480,0.846,0.818,��쐼,4.4,��
2018/03/17,23:10,0.858,1.443,0.895,1.686,1.144,0.480,0.849,0.818,��쐼,4.2,��
2018/03/17,23:20,0.855,1.444,0.894,1.685,1.143,0.479,0.848,0.819,�쐼,4.1,��
2018/03/17,23:30,0.856,1.445,0.897,1.685,1.143,0.479,0.849,0.817,�쐼,3.9,��
2018/03/17,23:40,0.856,1.447,0.896,1.686,1.143,0.480,0.848,0.818,��쐼,3.7,��
2018/03/17,23:50,0.858,1.445,0.896,1.684,1.143,0.479,0.847,0.818,��쐼,3.8,��
